Wetterstats.de || Aktuelle Messwerte || Aktuelle Wetterkarten NEU! || Radar / Satellit NEU! || Wetterarchiv || Langzeitwerte NEU! || Klim. Kenntage || Met. Ereignisse || Agrarwerte || Echtzeitwerte

Monatsübersicht für Februar 2020 Diagramm
 
Wetter Information zur Wetteranzeige
Zeitraffer
Tageslänge (hh:mm)
Höchsttemperatur in °C
Uhrzeit
Tiefsttemperatur in °C
Uhrzeit
Luftfeuchte (max., in %)
Uhrzeit
Luftfeuchte (min., in %)
Uhrzeit
Luftdruck (max., in hPa)
Uhrzeit
Luftdruck (min., in hPa)
Uhrzeit
Luftdruck (Ø, in hPa)
Regenrate (max, mm/h)
Uhrzeit
Niederschlag in mm
Verdunstung in mm
Solar in W/m² (Ø)
Solar in W/m² (max.)
UV-Index (max.)
Sonnenscheindauer (hh:mm)
Windrichtung (Ø)
Windstärke (Ø in km/h)
Windstärke (Ø in bft)
Windböe (max., in km/h)
Uhrzeit
Windböe (max., in bft)
Uhrzeit
Taupunkt (max., in °C)
Uhrzeit
Taupunkt (min., in °C)
Uhrzeit
Windchill (min., in °C)
Uhrzeit
Gewitterindex (max.)
Uhrzeit
Waldbrandindex (max.)
Uhrzeit
Graslandfeuerindex (max.)
Uhrzeit
Staubsturm-Index (max.)
Uhrzeit
01
Zeitraffer
09:06
12.8
10:25 Uhr
8.4
23:30 Uhr

95
15:10 Uhr
75
23:15 Uhr
1004.5
01:00 Uhr

997.7
16:25 Uhr
1000.7
2,400
12:25 Uhr
2,000
0.279
27
66
10:10 Uhr
0.0
00:00 Uhr

00:00:00
0,7
0
8,0
05:20 Uhr

2
10.5
15:25 Uhr
4.3
23:20 Uhr
8.4
23:30 Uhr
2
16:55 Uhr
0.0
00:00 Uhr
0.0
00:00 Uhr
0.0
00:00 Uhr
02
Zeitraffer
09:09
8.8
05:45 Uhr
5.9
22:15 Uhr

95
19:25 Uhr
75
05:20 Uhr
1005.7
11:20 Uhr

1001.4
00:00 Uhr
1003.7
2,400
01:10 Uhr
1,800
0.178
14
33
09:35 Uhr
0.0
00:00 Uhr

00:00:00
0,4
0
11,3
07:05 Uhr

2
6.0
10:35 Uhr
4.2
03:20 Uhr
5.9
22:15 Uhr
0
00:00 Uhr
0.0
00:00 Uhr
0.0
00:00 Uhr
0.0
00:00 Uhr
03
Zeitraffer
09:13
9.9
13:00 Uhr
5.7
02:50 Uhr

96
01:05 Uhr
87
14:05 Uhr
1006.3
11:05 Uhr

1002.7
23:55 Uhr
1005.4
2,400
01:25 Uhr
1,600
0.152
44
193
12:30 Uhr
0.0
00:00 Uhr

00:00:00
0,1
0
8,0
12:30 Uhr

2
8.2
13:00 Uhr
4.9
03:35 Uhr
5.7
02:50 Uhr
0
00:00 Uhr
0.0
00:00 Uhr
0.0
00:00 Uhr
0.0
00:00 Uhr
04
Zeitraffer
09:17
7.1
00:00 Uhr
3.8
23:15 Uhr

92
20:10 Uhr
75
13:40 Uhr
1013.4
23:55 Uhr

998.5
04:20 Uhr
1004.6
2,400
01:15 Uhr
2,200
0.203
43
188
11:30 Uhr
0.0
00:00 Uhr

00:01:00
0,9
0
9,7
16:05 Uhr

2
5.5
00:00 Uhr
1.7
23:55 Uhr
3.8
23:15 Uhr
0
00:00 Uhr
0.0
00:00 Uhr
0.0
00:00 Uhr
0.0
00:00 Uhr
05
Zeitraffer
09:20
6.1
12:00 Uhr
1.8
08:30 Uhr

91
03:55 Uhr
63
13:15 Uhr
1031.2
13:50 Uhr

1013.3
00:00 Uhr
1026.8
2,400
03:10 Uhr
0,200
0.381
100
375
12:00 Uhr
0.0
00:00 Uhr

03:01:00
1,5
0
24,1
03:40 Uhr

4
1.8
00:00 Uhr
-1.2
13:15 Uhr
0.5
03:15 Uhr
0
00:00 Uhr
0.0
00:00 Uhr
0.0
00:00 Uhr
0.0
00:00 Uhr
06
Zeitraffer
09:24
6.8
11:55 Uhr
2.6
00:00 Uhr

87
09:35 Uhr
78
00:15 Uhr
1029.7
00:20 Uhr

1025.3
16:00 Uhr
1026.7
0,000
00:00 Uhr
0,000
0.178
44
348
11:50 Uhr
0.0
00:00 Uhr

00:08:00
0,5
0
8,0
12:50 Uhr

2
3.7
15:15 Uhr
-0.8
00:15 Uhr
2.6
00:00 Uhr
0
00:00 Uhr
0.0
00:00 Uhr
0.0
00:00 Uhr
0.0
00:00 Uhr
07
Zeitraffer
09:28
6.4
11:55 Uhr
5.2
03:55 Uhr

93
06:10 Uhr
80
23:50 Uhr
1029.3
09:55 Uhr

1026.5
23:35 Uhr
1028.1
0,000
00:00 Uhr
0,000
0.127
25
40
11:30 Uhr
0.0
00:00 Uhr

00:00:00
0,6
0
14,5
23:35 Uhr

3
4.9
10:30 Uhr
3.3
23:50 Uhr
5.2
03:55 Uhr
0
00:00 Uhr
0.0
00:00 Uhr
0.0
00:00 Uhr
0.0
00:00 Uhr
08
Zeitraffer
09:32
8.8
14:15 Uhr
2.3
07:50 Uhr

92
03:55 Uhr
61
14:05 Uhr
1026.5
00:00 Uhr

1019.5
23:00 Uhr
1022.4
0,000
00:00 Uhr
0,000
0.686
110
300
12:00 Uhr
0.5
11:35 Uhr

03:41:00
1,9
0
16,1
00:10 Uhr

3
3.3
00:00 Uhr
1.2
07:20 Uhr
2.2
09:00 Uhr
0
00:00 Uhr
0.0
00:00 Uhr
0.0
00:00 Uhr
0.0
00:00 Uhr
09
Zeitraffer
09:35
13.1
23:55 Uhr
6.4
00:00 Uhr

78
04:35 Uhr
58
19:50 Uhr
1019.5
00:00 Uhr

988.4
23:50 Uhr
1008.2
2,400
22:00 Uhr
0,200
1.067
110
350
12:05 Uhr
0.5
11:55 Uhr

02:43:00
3,5
1
25,7
19:20 Uhr

4
6.2
22:10 Uhr
2.2
00:10 Uhr
6.4
00:00 Uhr
0
00:00 Uhr
0.0
00:00 Uhr
0.1
19:25 Uhr
0.0
00:00 Uhr
10
Zeitraffer
09:38
13.7
01:05 Uhr
4.3
21:10 Uhr

92
04:05 Uhr
62
00:35 Uhr
995.1
18:25 Uhr

982.7
02:25 Uhr
988.6
12,000
09:00 Uhr
7,200
0.355
37
100
12:15 Uhr
0.0
00:00 Uhr

00:00:00
1,8
0
19,3
02:35 Uhr

3
8.2
02:40 Uhr
1.3
21:50 Uhr
4.3
21:10 Uhr
0
00:00 Uhr
0.0
00:00 Uhr
0.0
00:00 Uhr
0.0
00:00 Uhr
11
Zeitraffer
09:42
7.1
14:25 Uhr
3.4
23:30 Uhr

87
03:40 Uhr
59
14:40 Uhr
1000.7
23:55 Uhr

986.6
01:30 Uhr
994.0
2,400
17:00 Uhr
0,200
0.381
37
111
11:45 Uhr
0.0
00:00 Uhr

00:00:00
2,0
0
12,9
05:40 Uhr

2
3.3
02:05 Uhr
-0.6
15:10 Uhr
3.4
23:30 Uhr
0
00:00 Uhr
0.0
00:00 Uhr
0.0
00:00 Uhr
0.0
00:00 Uhr
12
Zeitraffer
09:46
7.2
15:15 Uhr
3.4
00:25 Uhr

78
02:25 Uhr
57
15:20 Uhr
1011.0
23:45 Uhr

1000.6
00:10 Uhr
1005.1
0,000
00:00 Uhr
0,000
0.610
51
170
12:25 Uhr
0.0
00:00 Uhr

00:00:00
1,5
0
12,9
00:25 Uhr

2
0.0
02:00 Uhr
-1.1
16:55 Uhr
3.4
00:25 Uhr
0
00:00 Uhr
0.0
00:00 Uhr
0.0
00:00 Uhr
0.0
00:00 Uhr
13
Zeitraffer
09:50
6.2
10:30 Uhr
2.2
06:50 Uhr

90
23:40 Uhr
66
17:30 Uhr
1013.0
07:40 Uhr

1002.0
20:45 Uhr
1008.5
2,400
18:15 Uhr
0,800
0.584
94
230
10:10 Uhr
0.0
00:00 Uhr

02:36:00
2,3
1
30,6
17:25 Uhr

5
2.3
23:40 Uhr
-1.1
07:05 Uhr
1.3
18:25 Uhr
0
00:00 Uhr
0.0
00:00 Uhr
0.0
00:00 Uhr
0.0
00:00 Uhr
14
Zeitraffer
09:54
6.0
16:00 Uhr
3.1
05:55 Uhr

93
06:10 Uhr
88
16:40 Uhr
1023.7
23:30 Uhr

1002.8
00:00 Uhr
1014.2
2,400
07:50 Uhr
0,200
0.127
33
84
12:40 Uhr
0.0
00:00 Uhr

00:00:00
0,1
0
6,4
15:00 Uhr

1
4.5
15:20 Uhr
1.9
05:55 Uhr
3.1
05:55 Uhr
0
00:00 Uhr
0.0
00:00 Uhr
0.0
00:00 Uhr
0.0
00:00 Uhr
15
Zeitraffer
09:58
10.2
15:30 Uhr
2.6
06:00 Uhr

94
03:55 Uhr
71
16:15 Uhr
1023.9
01:35 Uhr

1013.7
22:50 Uhr
1019.6
0,000
00:00 Uhr
0,000
0.610
101
306
12:15 Uhr
0.5
11:35 Uhr

00:59:00
1,6
0
20,9
16:10 Uhr

4
5.4
13:55 Uhr
1.7
06:00 Uhr
2.6
06:00 Uhr
0
00:00 Uhr
0.0
00:00 Uhr
0.0
00:00 Uhr
0.0
00:00 Uhr


 
Wetter Information zur Wetteranzeige
Zeitraffer
Tageslänge (hh:mm)
Höchsttemperatur in °C
Uhrzeit
Tiefsttemperatur in °C
Uhrzeit
Luftfeuchte (max., in %)
Uhrzeit
Luftfeuchte (min., in %)
Uhrzeit
Luftdruck (max., in hPa)
Uhrzeit
Luftdruck (min., in hPa)
Uhrzeit
Luftdruck (Ø, in hPa)
Regenrate (max, mm/h)
Uhrzeit
Niederschlag in mm
Verdunstung in mm
Solar in W/m² (Ø)
Solar in W/m² (max.)
UV-Index (max.)
Sonnenscheindauer (hh:mm)
Windrichtung (Ø)
Windstärke (Ø in km/h)
Windstärke (Ø in bft)
Windböe (max., in km/h)
Uhrzeit
Windböe (max., in bft)
Uhrzeit
Taupunkt (max., in °C)
Uhrzeit
Taupunkt (min., in °C)
Uhrzeit
Windchill (min., in °C)
Uhrzeit
Gewitterindex (max.)
Uhrzeit
Waldbrandindex (max.)
Uhrzeit
Graslandfeuerindex (max.)
Uhrzeit
Staubsturm-Index (max.)
Uhrzeit
16
Zeitraffer
10:02
15.4
23:35 Uhr
7.6
00:45 Uhr

83
11:15 Uhr
47
22:25 Uhr
1013.6
00:00 Uhr

999.5
22:30 Uhr
1006.2
2,400
10:40 Uhr
0,800
0.737
33
84
13:45 Uhr
0.0
00:00 Uhr

00:00:00
3,6
1
20,9
18:40 Uhr

4
8.0
15:15 Uhr
3.2
02:45 Uhr
5.8
00:40 Uhr
0
00:00 Uhr
0.0
00:00 Uhr
0.1
22:55 Uhr
0.0
00:00 Uhr
17
Zeitraffer
10:06
15.3
00:00 Uhr
7.6
23:55 Uhr

77
01:05 Uhr
49
00:00 Uhr
1012.6
23:25 Uhr

1000.7
00:00 Uhr
1009.9
0,000
00:00 Uhr
0,000
0.838
81
257
12:00 Uhr
0.5
11:40 Uhr

00:06:00
1,5
0
11,3
00:10 Uhr

2
7.4
00:55 Uhr
1.2
12:20 Uhr
7.6
23:55 Uhr
0
00:00 Uhr
0.0
00:00 Uhr
0.0
00:00 Uhr
0.0
00:00 Uhr
18
Zeitraffer
10:10
8.8
11:45 Uhr
5.1
12:10 Uhr

89
12:30 Uhr
61
15:45 Uhr
1017.5
12:20 Uhr

1012.5
00:00 Uhr
1015.5
2,400
09:30 Uhr
1,200
0.584
69
419
12:30 Uhr
0.6
12:30 Uhr

00:40:00
1,1
0
12,9
09:30 Uhr

2
4.8
09:05 Uhr
1.2
15:45 Uhr
5.1
12:10 Uhr
0
00:00 Uhr
0.0
00:00 Uhr
0.0
00:00 Uhr
0.0
00:00 Uhr
19
Zeitraffer
10:14
7.8
13:50 Uhr
3.9
17:55 Uhr

92
18:55 Uhr
72
14:05 Uhr
1017.6
23:45 Uhr

1008.5
09:25 Uhr
1012.3
2,400
08:20 Uhr
3,000
0.406
52
339
12:30 Uhr
0.0
00:00 Uhr

00:02:00
1,2
0
12,9
05:25 Uhr

2
4.5
12:30 Uhr
1.6
02:00 Uhr
3.9
17:55 Uhr
0
00:00 Uhr
0.0
00:00 Uhr
0.0
00:00 Uhr
0.0
00:00 Uhr
20
Zeitraffer
10:17
7.7
23:05 Uhr
2.6
06:35 Uhr

91
14:30 Uhr
71
10:50 Uhr
1018.7
05:10 Uhr

1006.7
23:55 Uhr
1015.3
2,400
13:10 Uhr
0,600
0.432
70
306
10:45 Uhr
0.5
10:40 Uhr

00:59:00
1,5
0
20,9
23:55 Uhr

4
5.2
17:55 Uhr
-0.3
07:30 Uhr
2.6
06:35 Uhr
0
00:00 Uhr
0.0
00:00 Uhr
0.0
00:00 Uhr
0.0
00:00 Uhr
21
Zeitraffer
10:21
8.1
15:20 Uhr
4.4
07:25 Uhr

92
02:45 Uhr
64
15:35 Uhr
1022.4
17:05 Uhr

1005.3
02:00 Uhr
1017.0
2,400
00:50 Uhr
1,600
0.483
58
260
09:20 Uhr
0.0
00:00 Uhr

00:21:00
1,4
0
12,9
00:30 Uhr

2
5.1
02:45 Uhr
1.3
21:00 Uhr
4.4
07:25 Uhr
0
00:00 Uhr
0.0
00:00 Uhr
0.0
00:00 Uhr
0.0
00:00 Uhr
22
Zeitraffer
10:25
12.3
15:10 Uhr
6.4
08:05 Uhr

83
19:40 Uhr
46
13:25 Uhr
1021.5
00:00 Uhr

1009.6
15:35 Uhr
1014.1
2,400
19:05 Uhr
0,400
0.813
80
394
11:20 Uhr
0.6
11:20 Uhr

00:28:00
2,0
0
16,1
19:05 Uhr

3
5.9
19:05 Uhr
0.3
13:25 Uhr
6.4
08:05 Uhr
0
00:00 Uhr
0.0
00:00 Uhr
0.0
00:00 Uhr
0.0
00:00 Uhr
23
Zeitraffer
10:29
8.4
04:35 Uhr
4.7
23:05 Uhr

95
17:25 Uhr
69
05:30 Uhr
1013.1
00:55 Uhr

997.9
16:55 Uhr
1007.3
9,600
17:10 Uhr
11,200
0.279
26
51
11:15 Uhr
0.0
00:00 Uhr

00:00:00
1,2
0
11,3
19:40 Uhr

2
6.2
15:05 Uhr
2.0
23:55 Uhr
4.7
23:05 Uhr
0
00:00 Uhr
0.0
00:00 Uhr
0.0
00:00 Uhr
0.0
00:00 Uhr
24
Zeitraffer
10:34
8.1
12:40 Uhr
3.9
01:30 Uhr

95
23:25 Uhr
68
14:55 Uhr
1017.9
08:20 Uhr

998.7
23:50 Uhr
1011.8
2,400
12:10 Uhr
4,200
0.432
73
294
11:45 Uhr
0.7
11:45 Uhr

00:10:00
1,6
0
19,3
17:25 Uhr

3
5.9
23:55 Uhr
1.5
01:25 Uhr
2.0
19:50 Uhr
0
00:00 Uhr
0.0
00:00 Uhr
0.0
00:00 Uhr
0.0
00:00 Uhr
25
Zeitraffer
10:38
10.8
13:25 Uhr
5.2
23:20 Uhr

95
00:00 Uhr
55
14:10 Uhr
998.7
00:00 Uhr

991.8
23:20 Uhr
995.1
4,800
02:45 Uhr
1,800
0.559
73
279
12:55 Uhr
0.7
12:50 Uhr

00:21:00
0,9
0
11,3
13:25 Uhr

2
7.7
04:30 Uhr
-0.3
18:50 Uhr
5.2
23:20 Uhr
0
00:00 Uhr
0.0
00:00 Uhr
0.0
00:00 Uhr
0.0
00:00 Uhr
26
Zeitraffer
10:42
5.7
00:45 Uhr
2.6
20:45 Uhr

92
04:30 Uhr
73
00:00 Uhr
999.1
23:35 Uhr

990.0
03:35 Uhr
993.2
2,400
01:15 Uhr
1,800
0.203
41
106
14:00 Uhr
0.0
00:00 Uhr

00:05:00
0,2
0
8,0
01:10 Uhr

2
3.3
15:25 Uhr
0.9
00:00 Uhr
2.6
20:45 Uhr
0
00:00 Uhr
0.0
00:00 Uhr
0.0
00:00 Uhr
0.0
00:00 Uhr
27
Zeitraffer
10:45
6.7
12:25 Uhr
2.3
05:45 Uhr

92
00:00 Uhr
63
15:00 Uhr
1002.0
08:30 Uhr

996.8
17:25 Uhr
999.8
2,400
04:30 Uhr
0,200
0.406
72
534
12:25 Uhr
0.7
13:00 Uhr

00:11:00
0,4
0
8,0
15:05 Uhr

2
2.7
13:10 Uhr
-0.5
16:20 Uhr
2.3
05:45 Uhr
0
00:00 Uhr
0.0
00:00 Uhr
0.0
00:00 Uhr
0.0
00:00 Uhr
28
Zeitraffer
10:49
8.2
13:05 Uhr
1.3
03:40 Uhr

89
07:30 Uhr
58
16:30 Uhr
1012.9
18:20 Uhr

1000.8
00:00 Uhr
1009.5
2,400
10:25 Uhr
0,200
0.483
71
476
12:35 Uhr
0.8
12:30 Uhr

00:26:00
0,7
0
20,9
23:50 Uhr

4
3.0
13:00 Uhr
-0.9
03:40 Uhr
1.3
03:40 Uhr
0
00:00 Uhr
0.0
00:00 Uhr
0.0
00:00 Uhr
0.0
00:00 Uhr
29
Zeitraffer
10:54
11.7
15:20 Uhr
1.8
05:05 Uhr

94
08:15 Uhr
69
14:55 Uhr
1009.5
00:00 Uhr

990.3
19:50 Uhr
997.2
2,400
04:25 Uhr
2,800
0.610
76
368
12:35 Uhr
0.8
12:35 Uhr

00:22:00
3,5
1
29,0
05:50 Uhr

4
7.0
18:10 Uhr
-0.6
00:00 Uhr
-2.3
05:05 Uhr
0
00:00 Uhr
0.0
00:00 Uhr
0.0
00:00 Uhr
0.0
00:00 Uhr
Stationsstandorte || Wetterblog || Wissenswertes || Downloads || Seitenhistorie || Partner || Impressum / Datenschutz